Regional Weather Roundup
Issued by NWS Charleston, WV

Home | Current Version | Previous Version | Graphics & Text | Print | Product List | Glossary On
Versions: 1 2 3 4 5 6 7 8 9 10 11 12 13 14 15 16 17 18 19 20 21 22 23 24 25 26 27 28
000
ASUS41 KRLX 230710
RWRRLX
West Virginia Regional Weather Roundup
National Weather Service Charleston WV
300 AM EDT SUN APR 23 2017

Note: "fair" indicates few or no clouds below 12,000 feet with no
significant weather and/or obstructions to visibility.

WVZ003-230800-
Northern Panhandle of West Virginia

CITY           SKY/WX    TMP DP  RH WIND       PRES   REMARKS
WHEELING       CLEAR     42  31  64 NE12      30.07S
$$

WVZ009-230800-
Northwest West Virginia

CITY           SKY/WX    TMP DP  RH WIND       PRES   REMARKS
PARKERSBURG    CLEAR     44  36  73 NE6       30.07S
$$

WVZ006-230800-
Western West Virginia

CITY           SKY/WX    TMP DP  RH WIND       PRES   REMARKS
HUNTINGTON     CLOUDY    46  42  86 NE5       30.00F
$$

WVZ015-230800-
West Central West Virginia

CITY           SKY/WX    TMP DP  RH WIND       PRES   REMARKS
CHARLESTON     CLOUDY    45  43  93 CALM      30.00F
$$

WVZ022-031-230800-
North Central West Virginia

CITY           SKY/WX    TMP DP  RH WIND       PRES   REMARKS
CLARKSBURG     CLEAR     43  39  86 CALM      30.04S
MORGANTOWN     CLEAR     42  39  89 CALM      30.06S
$$

WVZ025-035-042-045-230800-
Southern West Virginia

CITY           SKY/WX    TMP DP  RH WIND       PRES   REMARKS
BECKLEY        FOG       46  45  96 CALM      29.97S VSB 1/2
LOGAN          CLOUDY    46  45  93 NE8       29.96F
BLUEFIELD      FOG       47  47 100 E6        29.96S VSB 1/4
LEWISBURG      CLOUDY    45  42  89 NE8       30.00F
$$

WVZ047-230800-
Northern Mountains of West Virginia

CITY           SKY/WX    TMP DP  RH WIND       PRES   REMARKS
ELKINS         CLOUDY    40  37  89 CALM      30.03F
$$

WVZ052-230800-
Eastern Panhandle of West Virginia

CITY           SKY/WX    TMP DP  RH WIND       PRES   REMARKS
MARTINSBURG    FOG       46  45  96 N5        30.07R VSB 1/4
PETERSBURG     FOG       47  46  99 CALM      30.06F VSB 1
$$




USA.gov is the U.S. government's official web portal to all federal, state and local government web resources and services.